Year,Month,Day,Hour,Minute,Value (Times are PST for temperature in C)
2013,03,12,12,57,8.90
2013,03,12,12,58,8.90
2013,03,12,12,59,9.00
2013,03,12,13,00,9.20
2013,03,12,13,01,9.30
2013,03,12,13,02,9.40
2013,03,12,13,03,9.30
2013,03,12,13,04,9.30
2013,03,12,13,05,9.40
2013,03,12,13,06,9.60
2013,03,12,13,07,9.70
2013,03,12,13,08,9.70
2013,03,12,13,09,9.60
2013,03,12,13,10,9.40
2013,03,12,13,11,9.30
2013,03,12,13,12,9.20
2013,03,12,13,13,9.10
2013,03,12,13,14,9.20
2013,03,12,13,15,9.20
2013,03,12,13,16,9.20
2013,03,12,13,17,9.20
2013,03,12,13,18,9.40
2013,03,12,13,19,9.40
2013,03,12,13,20,9.40
2013,03,12,13,21,9.30
2013,03,12,13,22,9.30
2013,03,12,13,23,9.40
2013,03,12,13,24,9.50
2013,03,12,13,25,9.60
2013,03,12,13,26,9.70
2013,03,12,13,27,9.70
2013,03,12,13,28,9.70
2013,03,12,13,29,9.80
2013,03,12,13,30,9.80
2013,03,12,13,31,9.70
2013,03,12,13,32,9.80
2013,03,12,13,33,9.80
2013,03,12,13,34,9.70
2013,03,12,13,35,9.70
2013,03,12,13,36,9.70
2013,03,12,13,37,9.60
2013,03,12,13,38,9.50
2013,03,12,13,39,9.40
2013,03,12,13,40,9.40
2013,03,12,13,41,9.40
2013,03,12,13,42,9.50
2013,03,12,13,43,9.60
2013,03,12,13,44,9.60
2013,03,12,13,45,9.50
2013,03,12,13,46,9.50
2013,03,12,13,47,9.50
2013,03,12,13,48,9.60
2013,03,12,13,49,9.50
2013,03,12,13,50,9.50
2013,03,12,13,51,9.40
2013,03,12,13,52,9.40
2013,03,12,13,53,9.40
2013,03,12,13,54,9.40
2013,03,12,13,55,9.50
2013,03,12,13,56,9.40
2013,03,12,13,57,9.30
2013,03,12,13,58,9.20
2013,03,12,13,59,9.20
2013,03,12,14,00,9.20
2013,03,12,14,01,9.20
2013,03,12,14,02,9.30
2013,03,12,14,03,9.30
2013,03,12,14,04,9.30
2013,03,12,14,05,9.40
2013,03,12,14,06,9.40
2013,03,12,14,07,9.50
2013,03,12,14,08,9.60
2013,03,12,14,09,9.70
2013,03,12,14,10,9.70
2013,03,12,14,11,9.70
2013,03,12,14,12,9.80
2013,03,12,14,13,9.80
2013,03,12,14,14,9.90
2013,03,12,14,15,10.00
2013,03,12,14,16,10.10
2013,03,12,14,17,10.10
2013,03,12,14,18,10.00
2013,03,12,14,19,9.90
2013,03,12,14,20,9.90
2013,03,12,14,21,9.90
2013,03,12,14,22,9.90
2013,03,12,14,23,9.90
2013,03,12,14,24,10.00
2013,03,12,14,25,10.10
2013,03,12,14,26,10.10
2013,03,12,14,27,10.10
2013,03,12,14,28,10.10
2013,03,12,14,29,10.10
2013,03,12,14,30,10.10
2013,03,12,14,31,10.20
2013,03,12,14,32,10.20
2013,03,12,14,33,10.20
2013,03,12,14,34,10.30
2013,03,12,14,35,10.40
2013,03,12,14,36,10.40
2013,03,12,14,37,10.40
2013,03,12,14,38,10.30
2013,03,12,14,39,10.20
2013,03,12,14,40,10.10
2013,03,12,14,41,10.10
2013,03,12,14,42,10.00
2013,03,12,14,43,9.90
2013,03,12,14,44,9.90
2013,03,12,14,45,9.90
2013,03,12,14,46,9.90
2013,03,12,14,47,9.80
2013,03,12,14,48,9.90
2013,03,12,14,49,9.90
2013,03,12,14,50,9.90
2013,03,12,14,51,9.90
2013,03,12,14,52,10.00
2013,03,12,14,53,10.10
2013,03,12,14,54,10.10
2013,03,12,14,55,10.10
2013,03,12,14,56,10.10
2013,03,12,14,57,10.10
2013,03,12,14,58,10.10
2013,03,12,14,59,10.10
2013,03,12,15,00,10.10
2013,03,12,15,01,10.20
2013,03,12,15,02,10.20
2013,03,12,15,03,10.20
2013,03,12,15,04,10.20
2013,03,12,15,05,10.30
2013,03,12,15,06,10.40
2013,03,12,15,07,10.40
2013,03,12,15,08,10.40
2013,03,12,15,09,10.50
2013,03,12,15,10,10.60
2013,03,12,15,11,10.60
2013,03,12,15,12,10.60
2013,03,12,15,13,10.60
2013,03,12,15,14,10.60
2013,03,12,15,15,10.70
2013,03,12,15,16,10.80
2013,03,12,15,17,10.70
2013,03,12,15,18,10.70
2013,03,12,15,19,10.70
2013,03,12,15,20,10.60
2013,03,12,15,21,10.60
2013,03,12,15,22,10.50
2013,03,12,15,23,10.40
2013,03,12,15,24,10.30
2013,03,12,15,25,10.30
2013,03,12,15,26,10.20
2013,03,12,15,27,10.20
2013,03,12,15,28,10.20
2013,03,12,15,29,10.20
2013,03,12,15,30,10.20
2013,03,12,15,31,10.20
2013,03,12,15,32,10.20
2013,03,12,15,33,10.20
2013,03,12,15,34,10.10
2013,03,12,15,35,10.10
2013,03,12,15,36,10.10
2013,03,12,15,37,10.10
2013,03,12,15,38,10.10
2013,03,12,15,39,10.10
2013,03,12,15,40,10.10
2013,03,12,15,41,10.10
2013,03,12,15,42,10.10
2013,03,12,15,43,10.10
2013,03,12,15,44,10.10
2013,03,12,15,45,10.10
2013,03,12,15,46,10.10
2013,03,12,15,47,10.10
2013,03,12,15,48,10.20
2013,03,12,15,49,10.20
2013,03,12,15,50,10.20
2013,03,12,15,51,10.10
2013,03,12,15,52,10.10
2013,03,12,15,53,10.10
2013,03,12,15,54,10.10
2013,03,12,15,55,10.10
2013,03,12,15,56,10.10
2013,03,12,15,57,10.10
2013,03,12,15,58,10.10
2013,03,12,15,59,10.10
2013,03,12,16,00,10.10
2013,03,12,16,01,10.10
2013,03,12,16,02,10.10
2013,03,12,16,03,10.00
2013,03,12,16,04,9.90
2013,03,12,16,05,9.90
2013,03,12,16,06,9.90
2013,03,12,16,07,9.90
2013,03,12,16,08,9.90
2013,03,12,16,09,10.00
2013,03,12,16,10,10.10
2013,03,12,16,11,10.10
2013,03,12,16,12,10.10
2013,03,12,16,13,10.20
2013,03,12,16,14,10.20
2013,03,12,16,15,10.20
2013,03,12,16,16,10.30
2013,03,12,16,17,10.30
2013,03,12,16,18,10.40
2013,03,12,16,19,10.40
2013,03,12,16,20,10.50
2013,03,12,16,21,10.60
2013,03,12,16,22,10.60
2013,03,12,16,23,10.60
2013,03,12,16,24,10.70
2013,03,12,16,25,10.70
2013,03,12,16,26,10.80
2013,03,12,16,27,10.80
2013,03,12,16,28,10.80
2013,03,12,16,29,10.90
2013,03,12,16,30,10.90
2013,03,12,16,31,10.90
2013,03,12,16,32,10.90
2013,03,12,16,33,10.90
2013,03,12,16,34,10.90
2013,03,12,16,35,10.90
2013,03,12,16,36,10.90
2013,03,12,16,37,10.90
2013,03,12,16,38,10.90
2013,03,12,16,39,11.10
2013,03,12,16,40,11.10
2013,03,12,16,41,11.10
2013,03,12,16,42,11.10
2013,03,12,16,43,11.10
2013,03,12,16,44,11.10
2013,03,12,16,45,11.10
2013,03,12,16,46,11.10
2013,03,12,16,47,11.10
2013,03,12,16,48,11.20
2013,03,12,16,49,11.20
2013,03,12,16,50,11.20
2013,03,12,16,51,11.20
2013,03,12,16,52,11.20
2013,03,12,16,53,11.30
2013,03,12,16,54,11.30
2013,03,12,16,55,11.30
2013,03,12,16,56,11.30
2013,03,12,16,57,11.30
2013,03,12,16,58,11.30
2013,03,12,16,59,11.30
2013,03,12,17,00,11.30
2013,03,12,17,01,11.40
2013,03,12,17,02,11.40
2013,03,12,17,03,11.40
2013,03,12,17,04,11.40
2013,03,12,17,05,11.40
2013,03,12,17,06,11.40
2013,03,12,17,07,11.40
2013,03,12,17,08,11.40
2013,03,12,17,09,11.40
2013,03,12,17,10,11.30
2013,03,12,17,11,11.30
2013,03,12,17,12,11.20
2013,03,12,17,13,11.10
2013,03,12,17,14,11.10
2013,03,12,17,15,11.00
2013,03,12,17,16,10.90
2013,03,12,17,17,10.80
2013,03,12,17,18,10.80
2013,03,12,17,19,10.80
2013,03,12,17,20,10.80
2013,03,12,17,21,10.80
2013,03,12,17,22,10.80
2013,03,12,17,23,10.80
2013,03,12,17,24,10.80
2013,03,12,17,25,10.80
2013,03,12,17,26,10.80
2013,03,12,17,27,10.80
2013,03,12,17,28,10.80
